Weather History for KNYC - January, 2014

Change the Weather History Date:

Thursday, January 2, 2014

  Actual Average Record
Temperature  
Mean Temperature 26 °F 33 °F  
Max Temperature 33 °F 39 °F 68 °F (1876)
Min Temperature 18 °F 28 °F 2 °F (1918)
Degree Days  
Heating Degree Days 39 32  
Month to date heating degree days 75 64  
Since 1 July heating degree days 1698 1749  
Cooling Degree Days 0 0  
Month to date cooling degree days 0 0  
Year to date cooling degree days 0 0  
Moisture  
Dew Point 20 °F    
Average Humidity 70    
Maximum Humidity 84    
Minimum Humidity 56    
Precipitation  
Precipitation 0.33 in 0.12 in 1.92 in (1925)
Month to date precipitation 0.33 0.24  
Year to date precipitation 0.33 0.24  
Snow  
Snow 3.10 in 0.20 in 11.50 in (1925)
Month to date snowfall 3.1 0.4  
Since 1 July snowfall 11.7 5.5  
Snow Depth 0.00 in    
Sea Level Pressure  
Sea Level Pressure 29.98 in    
Wind  
Wind Speed 12 mph (ENE)    
Max Wind Speed 21 mph    
Max Gust Speed 28 mph    
Visibility 7 miles    
Events Fog , Snow    
T = Trace of Precipitation, MM = Missing Value Source: NWS Daily Summary

Daily Weather History Graph

Daily Weather History Graph

Search for Another Location

Airport or City:

Trip Planner

Search our weather history database for the weather conditions in past years. The results will help you decide how hot, cold, wet, or windy it might be!

Date:

Astronomy

Jan. 02, 2014 Rise Set
Actual Time 7:20 AM EST 4:39 PM EST
Civil Twilight 6:49 AM EST 5:10 PM EST
Nautical Twilight 6:15 AM EST 5:45 PM EST
Astronomical Twilight 5:41 AM EST 6:18 PM EST
Moon 7:58 AM EST (1/2) 6:34 PM EST (1/2)
Length of Visible Light 10h 21m
Length of Day
9h 19m
New Moon, 2% of the Moon is Illuminated
Jan 2
New Moon
Jan 7
First Quarter
Jan 15
Full
Jan 24
Last Quarter
Jan 30
New

Hourly Weather History & Observations

Time (EST) Temp. Windchill Dew Point Humidity Pressure Visibility Wind Dir Wind Speed Gust Speed Precip Events Conditions
12:51 AM 33.1 °F 27.7 °F 19.9 °F 59% 30.22 in 10.0 mi Variable 5.8 mph 18.4 mph N/A   Overcast
1:51 AM 32.0 °F 24.8 °F 19.9 °F 61% 30.21 in 10.0 mi ENE 8.1 mph 18.4 mph N/A   Overcast
2:51 AM 32.0 °F 24.8 °F 21.9 °F 66% 30.19 in 10.0 mi ENE 8.1 mph 17.3 mph N/A   Overcast
3:51 AM 30.0 °F 18.7 °F 23.0 °F 75% 30.16 in 7.0 mi ENE 16.1 mph 23.0 mph N/A   Overcast
4:15 AM 28.9 °F 19.2 °F 23.0 °F 78% 30.17 in 5.0 mi ENE 11.5 mph 20.7 mph 0.00 in Snow Light Snow
4:51 AM 28.9 °F 19.8 °F 21.9 °F 75% 30.14 in 8.0 mi ENE 10.4 mph 21.9 mph 0.00 in   Overcast
5:20 AM 28.0 °F 17.5 °F 21.9 °F 78% 30.15 in 1.8 mi ENE 12.7 mph 20.7 mph 0.00 in Snow Light Snow
5:36 AM 27.0 °F 14.7 °F 21.9 °F 81% 30.15 in 3.0 mi NE 16.1 mph 21.9 mph 0.01 in Snow Light Snow
5:51 AM 28.0 °F 19.3 °F 21.9 °F 78% 30.12 in 8.0 mi ENE 9.2 mph 21.9 mph 0.02 in   Overcast
6:51 AM 27.0 °F 14.3 °F 21.0 °F 78% 30.11 in 10.0 mi ENE 17.3 mph 24.2 mph N/A   Overcast
7:51 AM 27.0 °F 15.2 °F 19.9 °F 75% 30.09 in 10.0 mi NE 15.0 mph 21.9 mph N/A   Overcast
8:51 AM 27.0 °F 15.2 °F 19.0 °F 72% 30.09 in 10.0 mi ENE 15.0 mph 23.0 mph N/A   Overcast
9:51 AM 26.1 °F 14.5 °F 19.9 °F 78% 30.07 in 10.0 mi NE 13.8 mph 24.2 mph N/A   Overcast
10:51 AM 26.1 °F 16.2 °F 19.0 °F 75% 30.04 in 10.0 mi ENE 10.4 mph 24.2 mph N/A   Overcast
11:51 AM 26.1 °F 15.0 °F 19.0 °F 75% 29.97 in 10.0 mi ENE 12.7 mph 20.7 mph N/A   Overcast
12:51 PM 26.1 °F 15.6 °F 19.0 °F 75% 29.94 in 10.0 mi ENE 11.5 mph 21.9 mph N/A   Overcast
1:51 PM 26.1 °F 16.8 °F 19.0 °F 75% 29.90 in 10.0 mi NE 9.2 mph 24.2 mph N/A   Overcast
2:51 PM 26.1 °F 16.2 °F 19.0 °F 75% 29.87 in 10.0 mi NE 10.4 mph 20.7 mph N/A   Overcast
3:51 PM 26.1 °F 16.2 °F 19.0 °F 75% 29.86 in 10.0 mi NE 10.4 mph 23.0 mph N/A   Overcast
4:51 PM 26.1 °F 14.0 °F 19.0 °F 75% 29.82 in 10.0 mi NE 15.0 mph 24.2 mph N/A   Overcast
5:51 PM 25.0 °F 12.2 °F 19.0 °F 78% 29.79 in 10.0 mi ENE 16.1 mph 24.2 mph N/A   Overcast
6:51 PM 25.0 °F 15.5 °F 18.0 °F 75% 29.77 in 1.5 mi ENE 9.2 mph 21.9 mph 0.00 in Snow Light Snow
8:51 PM 21.9 °F 7.8 °F 18.0 °F 85% 29.71 in 0.5 mi NE 17.3 mph 24.2 mph 0.07 in Fog , Snow Snow
9:51 PM 21.0 °F 8.1 °F 16.0 °F 81% 29.70 in 0.5 mi NE 13.8 mph 25.3 mph 0.07 in Snow Snow
10:51 PM 19.9 °F 6.2 °F 14.0 °F 78% 29.69 in 0.5 mi NE 15.0 mph 24.2 mph 0.07 in Snow Snow
11:51 PM 18.0 °F 6.9 °F 14.0 °F 84% 29.68 in 0.5 mi NE 9.2 mph 26.5 mph 0.06 in Fog , Snow Snow